Terminal Aerodrome Forecast
Issued by NWS

Home | Current Version | Previous Version | Text Only | Print | Product List | Glossary On
Versions: 1 2 3 4 5 6 7 8 9 10 11 12 13 14 15 16 17 18 19 20 21 22 23 24 25 26 27 28 29 30 31 32 33 34 35 36 37 38 39 40 41 42 43 44 45 46 47 48 49 50
051
FTUS43 KDMX 070009 AAA
TAFMCW
TAF AMD
KMCW 070009Z 0700/0724 20012KT P6SM SCT006 SCT110
     FM070800 27016KT P6SM BKN200
     FM071600 27017G24KT P6SM FEW050 SCT200
     FM072300 30016G30KT 5SM -SHSN BLSN OVC030=

USA.gov is the U.S. government's official web portal to all federal, state and local government web resources and services.